TimePST,TemperatureF,Dew PointF,Humidity,Sea Level PressureIn,VisibilityMPH,Wind Direction,Wind SpeedMPH,Gust SpeedMPH,PrecipitationIn,Events,Conditions,WindDirDegrees,DateUTC
12:09 AM,60.8,55.4,82,29.71,3.0,SSE,11.5,17.3,0.04,Rain,Rain,160,2012-12-02 08:09:00
12:13 AM,59.0,55.4,88,29.71,2.5,SSE,9.2,17.3,0.06,Rain,Rain,160,2012-12-02 08:13:00
12:37 AM,57.2,55.4,94,29.69,4.0,SSE,12.7,19.6,0.16,Rain,Light Rain,160,2012-12-02 08:37:00
12:56 AM,59.0,57.0,93,29.66,4.0,SSE,6.9,18.4,0.19,Rain,Light Rain,150,2012-12-02 08:56:00
1:13 AM,60.8,57.2,88,29.67,2.0,SSE,9.2,19.6,0.11,Rain,Heavy Rain,160,2012-12-02 09:13:00
1:22 AM,60.8,57.2,88,29.66,1.8,SSE,10.4,19.6,0.18,Rain,Heavy Rain,150,2012-12-02 09:22:00
1:29 AM,60.8,57.2,88,29.66,2.5,SSE,10.4,18.4,0.23,Rain,Heavy Rain,160,2012-12-02 09:29:00
1:43 AM,60.8,57.2,88,29.65,3.0,South,11.5,26.5,0.28,Rain,Rain,170,2012-12-02 09:43:00
1:56 AM,61.0,55.9,83,29.63,3.0,South,13.8,27.6,0.32,Rain,Light Rain,170,2012-12-02 09:56:00
2:05 AM,60.8,57.2,88,29.64,2.5,South,10.4,25.3,0.07,Rain,Heavy Rain,170,2012-12-02 10:05:00
2:24 AM,60.8,57.2,88,29.64,4.0,South,12.7,27.6,0.13,Rain,Light Rain,170,2012-12-02 10:24:00
2:52 AM,60.8,57.2,88,29.62,3.0,South,12.7,21.9,0.25,Rain,Heavy Rain,180,2012-12-02 10:52:00
2:56 AM,61.0,57.0,87,29.60,3.0,South,9.2,21.9,0.27,Rain,Heavy Rain,170,2012-12-02 10:56:00
3:12 AM,60.8,57.2,88,29.59,3.0,South,10.4,24.2,0.06,Rain,Rain,170,2012-12-02 11:12:00
3:54 AM,62.6,57.2,82,29.59,3.0,South,15.0,23.0,0.32,Rain,Heavy Rain,190,2012-12-02 11:54:00
3:56 AM,62.1,57.0,84,29.57,3.0,South,13.8,23.0,0.33,Rain,Heavy Rain,170,2012-12-02 11:56:00
4:14 AM,62.6,57.2,82,29.61,2.5,SSW,11.5,24.2,0.14,Rain,Heavy Rain,200,2012-12-02 12:14:00
4:26 AM,62.6,57.2,82,29.63,1.8,North,9.2,-,0.25,Rain,Heavy Rain,10,2012-12-02 12:26:00
4:38 AM,57.2,51.8,82,29.65,2.0,NW,12.7,31.1,0.38,Rain,Heavy Rain,320,2012-12-02 12:38:00
4:45 AM,57.2,50.0,77,29.66,3.0,WNW,20.7,39.1,0.41,Rain,Heavy Rain,290,2012-12-02 12:45:00
4:56 AM,55.9,48.9,77,29.66,5.0,WNW,17.3,31.1,0.46,Rain,Heavy Rain,290,2012-12-02 12:56:00
5:56 AM,53.1,51.1,93,29.69,4.0,SE,3.5,-,0.28,Rain,Heavy Rain,140,2012-12-02 13:56:00
6:56 AM,53.1,51.1,93,29.70,4.0,Variable,5.8,-,0.26,Rain,Heavy Rain,0,2012-12-02 14:56:00
7:17 AM,53.6,51.8,94,29.72,3.0,Calm,Calm,-,0.08,Rain,Heavy Rain,0,2012-12-02 15:17:00
7:32 AM,51.8,51.8,100,29.73,2.5,Variable,3.5,-,0.17,Rain,Heavy Rain,0,2012-12-02 15:32:00
7:39 AM,53.6,51.8,94,29.73,4.0,SSE,4.6,-,0.20,Rain,Rain,150,2012-12-02 15:39:00
8:56 AM,53.1,46.0,77,29.78,10.0,NW,16.1,26.5,0.01,,Overcast,310,2012-12-02 16:56:00
9:04 AM,53.6,44.6,72,29.80,10.0,NW,11.5,21.9,N/A,,Overcast,320,2012-12-02 17:04:00
9:29 AM,53.6,46.4,77,29.82,10.0,North,6.9,-,N/A,,Scattered Clouds,360,2012-12-02 17:29:00
9:56 AM,53.1,45.0,74,29.85,10.0,North,11.5,-,N/A,,Mostly Cloudy,350,2012-12-02 17:56:00
10:56 AM,55.0,46.0,72,29.88,10.0,NNW,5.8,-,N/A,,Overcast,340,2012-12-02 18:56:00
11:56 AM,55.0,44.1,67,29.89,10.0,WNW,3.5,-,N/A,,Mostly Cloudy,290,2012-12-02 19:56:00
12:56 PM,55.9,42.1,60,29.92,10.0,NW,12.7,17.3,N/A,,Clear,320,2012-12-02 20:56:00
1:56 PM,55.0,39.9,57,29.95,10.0,WNW,10.4,-,N/A,,Mostly Cloudy,300,2012-12-02 21:56:00
2:56 PM,55.9,42.1,60,29.96,10.0,WNW,4.6,-,N/A,,Clear,290,2012-12-02 22:56:00
5:56 PM,46.0,42.1,86,30.03,10.0,Calm,Calm,-,N/A,,Clear,0,2012-12-03 01:56:00
6:56 PM,46.0,42.1,86,30.06,10.0,Calm,Calm,-,N/A,,Clear,0,2012-12-03 02:56:00
7:56 PM,44.1,42.1,93,30.07,10.0,WSW,3.5,-,N/A,,Clear,240,2012-12-03 03:56:00
8:56 PM,44.1,41.0,89,30.09,10.0,NNW,3.5,-,N/A,,Clear,340,2012-12-03 04:56:00
9:56 PM,43.0,41.0,93,30.12,9.0,Calm,Calm,-,N/A,,Clear,0,2012-12-03 05:56:00
10:56 PM,43.0,41.0,93,30.12,7.0,Calm,Calm,-,N/A,,Clear,0,2012-12-03 06:56:00
11:56 PM,42.1,39.9,92,30.13,10.0,Calm,Calm,-,N/A,,Clear,0,2012-12-03 07:56:00